Location: Maccacari
(45.1333°N, 11.1333°E)
Time: 19:46:10
(UTC+00:00)

Tiros 1 despin weight - Pass Details

Date: 26 January 2021
Orbit: 593 x 642 km, 48.2° (Epoch: 26 February)

Event Time Altitude Azimuth Distance (km) Brightness Sun altitude
Rises 15:47:00 0° 279° (W) 2,879 ? 3.5°
Reaches altitude 10° 15:49:21 10° 284° (WNW) 1,966 ? 3.1°
Maximum altitude 15:53:49 58° 4° (N) 707 ? 2.4°
Drops below altitude 10° 15:58:12 10° 84° (E) 1,938 ? 1.7°
Sets 16:00:30 0° 88° (E) 2,834 ? 1.4°
